Cosmos 1437 - Orbit

View from above orbital plane
View from above orbital plane
View from above satellite
View from above satellite

Ground track
Ground track

The orbit data is extracted from the following two-line orbital elements,

1 13770U 83003A   13136.57597155  .00007293  00000-0  29646-3 0  2815
2 13770 081.1674 144.9164 0014017 034.3681 113.3516 15.24316271657048
Epoch (UTC): 16 May 2013 13:49:23
Eccentricity: 0.0014017
inclination: 81.1674°
perigee height: 483 km
apogee height: 502 km
right ascension of ascending node: 144.9164°
argument of perigee: 34.3681°
revolutions per day: 15.24316271
mean anomaly at epoch: 113.3516°
orbit number at epoch: 65704

The dashed part of the orbit path shows where the satellite is in the earth's shadow,  

Developed and maintained by Chris Peat, Heavens-Above GmbH. Please read the updated FAQ before sending e-mail. Imprint. DLR